Location: *
(33.6842°N, 117.7925°W)
Time: 03:14:45
(UTC+00:00)

USA 234 - Pass Details

Date: 21 October 2019
Orbit: 1102 x 1106 km, 123.0° (Epoch: 12 November)

Event Time Altitude Azimuth Distance (km) Brightness Sun altitude
Rises 13:07:06 0° 141° (SE) 3,907 6.9 -11.9°
Reaches altitude 10° 13:09:35 10° 143° (SE) 2,951 6.1 -11.3°
Maximum altitude 13:16:06 75° 228° (SW) 1,140 3.3 -10.0°
Drops below altitude 10° 13:22:38 10° 314° (NW) 2,961 5.0 -8.6°
Enters shadow 13:24:59 - 316° (NW) 3,864 5.6 -8.2°
